When you browse on this site, cookies collect data to enhance your experience and personalize the content and advertising you see.
Visit our Privacy Policy to learn more. By continuing to use the site, you agree to this use of cookies and data.
  • In Czech Republic
  • List of Countries
  • For 7 days
  • Water Temperature
  • Weather Map
  • Weather Widgets
  • user-avatar
    Login

    Hourly Weather Kastoria

    Today, 14 December, Saturday

    Time Temperature Precipitation Wind Pressure Humidity
    00:00 +4°C° 1 mm 3 mps 686 mmHg 95%
    01:00 +4°C° 0 mm 4 mps 686 mmHg 95%
    02:00 +4°C° 4.6 mm 3 mps 685 mmHg 96%
    03:00 +4°C° 4.6 mm 3 mps 684 mmHg 97%
    04:00 +5°C° 4.6 mm 2 mps 684 mmHg 98%
    05:00 +6°C° 2 mm 1 mps 684 mmHg 98%
    06:00 +6°C° 2 mm 1 mps 684 mmHg 98%
    07:00 +6°C° 0 mm 1 mps 685 mmHg 97%
    08:00 +6°C° 0.8 mm 1 mps 685 mmHg 97%
    09:00 +6°C° 0.8 mm 1 mps 686 mmHg 96%
    10:00 +5°C° 0.8 mm 2 mps 686 mmHg 96%
    11:00 +6°C° 0.1 mm 2 mps 687 mmHg 95%
    12:00 +6°C° 0.1 mm 2 mps 687 mmHg 93%
    13:00 +7°C° 0.1 mm 3 mps 688 mmHg 92%
    14:00 +7°C° 0 mm 3 mps 689 mmHg 92%
    15:00 +5°C° 0 mm 3 mps 690 mmHg 92%
    16:00 +5°C° 0 mm 3 mps 691 mmHg 92%
    17:00 +5°C° 0 mm 3 mps 692 mmHg 92%
    18:00 +6°C° 0 mm 2 mps 693 mmHg 93%
    19:00 +5°C° 0 mm 2 mps 694 mmHg 93%
    20:00 +5°C° 0 mm 2 mps 695 mmHg 92%
    21:00 +5°C° 0 mm 2 mps 696 mmHg 92%
    22:00 +5°C° 0 mm 2 mps 697 mmHg 91%
    23:00 +5°C° 0 mm 2 mps 697 mmHg 91%

    Tomorrow, 15 December, Sunday

    Time Temperature Precipitation Wind Pressure Humidity
    00:00 +6°C° 0 mm 1 mps 698 mmHg 91%
    01:00 +6°C° 0 mm 1 mps 699 mmHg 90%
    02:00 +6°C° 0 mm 1 mps 699 mmHg 90%
    03:00 +6°C° 0 mm 1 mps 699 mmHg 90%
    04:00 +6°C° 0 mm 1 mps 700 mmHg 89%
    05:00 +6°C° 0 mm 1 mps 701 mmHg 89%
    06:00 +5°C° 0 mm 1 mps 701 mmHg 88%
    07:00 +5°C° 0 mm 1 mps 702 mmHg 87%
    08:00 +7°C° 0 mm 1 mps 703 mmHg 84%
    09:00 +8°C° 0 mm 0 mps 704 mmHg 81%
    10:00 +9°C° 0 mm 0 mps 704 mmHg 78%
    11:00 +10°C° 0 mm 0 mps 704 mmHg 77%
    12:00 +12°C° 0 mm 1 mps 704 mmHg 75%
    13:00 +13°C° 0 mm 1 mps 705 mmHg 74%
    14:00 +12°C° 0 mm 1 mps 705 mmHg 78%
    15:00 +11°C° 0 mm 1 mps 705 mmHg 82%
    16:00 +10°C° 0 mm 1 mps 705 mmHg 86%
    17:00 +9°C° 0 mm 1 mps 705 mmHg 86%
    18:00 +9°C° 0 mm 1 mps 705 mmHg 86%
    19:00 +8°C° 0 mm 1 mps 706 mmHg 86%
    20:00 +8°C° 0 mm 1 mps 706 mmHg 86%
    21:00 +8°C° 0 mm 1 mps 707 mmHg 86%
    22:00 +8°C° 0 mm 1 mps 707 mmHg 86%
    23:00 +8°C° 0 mm 1 mps 707 mmHg 85%

    Day after tomorrow, 16 December, Monday

    Time Temperature Precipitation Wind Pressure Humidity
    00:00 +7°C° 0 mm 1 mps 707 mmHg 85%
    01:00 +7°C° 0 mm 1 mps 707 mmHg 85%
    02:00 +7°C° 0 mm 1 mps 707 mmHg 84%
    03:00 +7°C° 0 mm 1 mps 707 mmHg 83%
    04:00 +7°C° 0 mm 1 mps 707 mmHg 82%
    05:00 +7°C° 0 mm 1 mps 707 mmHg 82%
    06:00 +7°C° 0 mm 1 mps 708 mmHg 81%
    07:00 +7°C° 0 mm 1 mps 708 mmHg 81%
    08:00 +8°C° 0 mm 1 mps 708 mmHg 77%
    09:00 +10°C° 0 mm 1 mps 709 mmHg 74%
    10:00 +11°C° 0 mm 1 mps 709 mmHg 71%
    11:00 +12°C° 0 mm 1 mps 709 mmHg 69%
    12:00 +13°C° 0 mm 1 mps 709 mmHg 67%
    13:00 +14°C° 0 mm 1 mps 708 mmHg 65%
    14:00 +13°C° 0 mm 1 mps 708 mmHg 70%
    15:00 +12°C° 0 mm 1 mps 708 mmHg 74%
    16:00 +11°C° 0 mm 1 mps 708 mmHg 79%
    17:00 +10°C° 0 mm 1 mps 708 mmHg 80%
    18:00 +9°C° 0 mm 1 mps 708 mmHg 80%
    19:00 +9°C° 0 mm 1 mps 708 mmHg 81%
    20:00 +9°C° 0 mm 1 mps 708 mmHg 80%
    21:00 +8°C° 0 mm 1 mps 708 mmHg 79%
    22:00 +8°C° 0 mm 1 mps 708 mmHg 78%
    23:00 +8°C° 0 mm 1 mps 708 mmHg 77%

    17 December, Tuesday

    Time Temperature Precipitation Wind Pressure Humidity
    00:00 +8°C° 0 mm 1 mps 708 mmHg 75%
    01:00 +8°C° 0 mm 1 mps 707 mmHg 74%
    02:00 +8°C° 0 mm 1 mps 707 mmHg 73%
    03:00 +8°C° 0 mm 1 mps 707 mmHg 71%
    04:00 +7°C° 0 mm 1 mps 707 mmHg 70%
    05:00 +7°C° 0 mm 1 mps 707 mmHg 69%
    06:00 +7°C° 0 mm 1 mps 707 mmHg 67%
    07:00 +7°C° 0 mm 1 mps 707 mmHg 66%
    08:00 +9°C° 0 mm 1 mps 708 mmHg 63%
    09:00 +10°C° 0 mm 0 mps 708 mmHg 60%
    10:00 +12°C° 0 mm 0 mps 709 mmHg 57%
    11:00 +12°C° 0 mm 0 mps 708 mmHg 55%
    12:00 +13°C° 0 mm 0 mps 708 mmHg 53%
    13:00 +15°C° 0 mm 1 mps 708 mmHg 52%
    14:00 +14°C° 0 mm 1 mps 708 mmHg 56%
    15:00 +13°C° 0 mm 1 mps 708 mmHg 61%
    16:00 +11°C° 0 mm 1 mps 707 mmHg 66%
    17:00 +11°C° 0 mm 1 mps 707 mmHg 66%
    18:00 +9°C° 0 mm 0 mps 708 mmHg 66%
    19:00 +9°C° 0 mm 0 mps 708 mmHg 66%
    20:00 +8°C° 0 mm 0 mps 708 mmHg 66%
    21:00 +8°C° 0 mm 0 mps 708 mmHg 66%
    22:00 +8°C° 0 mm 0 mps 708 mmHg 66%
    23:00 +8°C° 0 mm 0 mps 708 mmHg 67%

    18 December, Wednesday

    Time Temperature Precipitation Wind Pressure Humidity
    00:00 +7°C° 0 mm 0 mps 708 mmHg 67%
    01:00 +7°C° 0 mm 0 mps 708 mmHg 68%
    02:00 +7°C° 0 mm 0 mps 707 mmHg 68%
    03:00 +7°C° 0 mm 0 mps 707 mmHg 68%
    04:00 +7°C° 0 mm 0 mps 707 mmHg 68%
    05:00 +6°C° 0 mm 0 mps 707 mmHg 67%
    06:00 +6°C° 0 mm 0 mps 707 mmHg 67%
    07:00 +6°C° 0 mm 0 mps 707 mmHg 66%
    08:00 +8°C° 0 mm 0 mps 708 mmHg 63%
    09:00 +11°C° 0 mm 1 mps 708 mmHg 60%
    10:00 +12°C° 0 mm 1 mps 709 mmHg 56%
    11:00 +13°C° 0 mm 1 mps 708 mmHg 55%
    12:00 +14°C° 0 mm 1 mps 708 mmHg 54%
    13:00 +15°C° 0 mm 1 mps 708 mmHg 52%
    14:00 +13°C° 0 mm 1 mps 708 mmHg 58%
    15:00 +12°C° 0 mm 1 mps 707 mmHg 63%
    16:00 +11°C° 0 mm 1 mps 707 mmHg 68%
    17:00 +10°C° 0 mm 1 mps 707 mmHg 70%
    18:00 +10°C° 0 mm 1 mps 707 mmHg 71%
    19:00 +9°C° 0 mm 1 mps 707 mmHg 73%
    20:00 +9°C° 0 mm 1 mps 707 mmHg 74%
    21:00 +8°C° 0 mm 1 mps 708 mmHg 76%
    22:00 +8°C° 0 mm 1 mps 708 mmHg 77%
    23:00 +8°C° 0 mm 1 mps 707 mmHg 77%

    19 December, Thursday

    Time Temperature Precipitation Wind Pressure Humidity
    00:00 +8°C° 0 mm 1 mps 707 mmHg 76%
    01:00 +8°C° 0 mm 1 mps 707 mmHg 76%
    02:00 +7°C° 0 mm 1 mps 707 mmHg 75%
    03:00 +7°C° 0 mm 1 mps 706 mmHg 75%
    04:00 +7°C° 0 mm 1 mps 706 mmHg 74%
    05:00 +7°C° 0 mm 1 mps 706 mmHg 74%
    06:00 +7°C° 0 mm 1 mps 706 mmHg 74%
    07:00 +7°C° 0 mm 1 mps 706 mmHg 75%
    08:00 +8°C° 0 mm 1 mps 706 mmHg 73%
    09:00 +9°C° 0 mm 1 mps 706 mmHg 72%
    10:00 +10°C° 0 mm 1 mps 706 mmHg 70%
    11:00 +11°C° 0 mm 1 mps 706 mmHg 69%
    12:00 +10°C° 0 mm 2 mps 705 mmHg 68%
    13:00 +12°C° 0 mm 2 mps 705 mmHg 67%
    14:00 +10°C° 0 mm 2 mps 705 mmHg 72%
    15:00 +11°C° 0 mm 1 mps 704 mmHg 76%
    16:00 +10°C° 0 mm 1 mps 704 mmHg 81%
    17:00 +10°C° 0.1 mm 1 mps 704 mmHg 84%
    18:00 +10°C° 0.1 mm 1 mps 704 mmHg 87%
    19:00 +10°C° 0.1 mm 1 mps 704 mmHg 89%
    20:00 +9°C° 0.1 mm 1 mps 704 mmHg 91%
    21:00 +9°C° 0.1 mm 1 mps 704 mmHg 92%
    22:00 +9°C° 0.1 mm 1 mps 704 mmHg 94%
    23:00 +9°C° 0 mm 1 mps 703 mmHg 94%
    Show more